Location: Unspecified
(0.0000°N, 0.0000°E)
Time: 06:52:38
(UTC+00:00)

Courier 1B - Pass Details

Date: 28 September 2023
Orbit: 962 x 1208 km, 28.3° (Epoch: 06 December)

Event Time Altitude Azimuth Distance (km) Brightness Sun altitude
Rises 20:28:40 0° 298° (WNW) 3,995 11.4 -39.5°
Reaches altitude 10° 20:31:32 10° 298° (WNW) 3,002 10.6 -40.2°
Enters shadow 20:35:33 35° 294° (WNW) 1,696 9.0 -41.2°
Maximum altitude 20:38:56 82° 211° (SSW) 1,089 - -42.0°
Drops below altitude 10° 20:45:52 10° 123° (ESE) 2,821 - -43.8°
Sets 20:48:29 0° 122° (ESE) 3,742 - -44.4°
